Location: Ferchesar
(52.6477°N, 12.4298°E)
Time: 15:03:06
(UTC+01:00)

deb Explorer IX - Pass Details

Date: 16 December 2021
Orbit: 544 x 1082 km, 38.8° (Epoch: 18 January)

Event Time Altitude Azimuth Distance (km) Brightness Sun altitude
Rises 07:52:06 0° 247° (WSW) 3,631 ? -3.8°
Reaches altitude 10° 07:55:32 10° 232° (SW) 2,585 ? -3.3°
Maximum altitude 07:59:50 20° 187° (S) 1,838 ? -2.8°
Drops below altitude 10° 08:03:45 10° 141° (SE) 2,310 ? -2.3°
Sets 08:06:37 0° 125° (SE) 3,131 ? -2.0°
